Location: Unspecified
(0.0000°N, 0.0000°E)
Time: 23:13:10
(UTC+00:00)

Courier 1B Rocket - Pass Details

Date: 07 October 2020
Orbit: 920 x 1202 km, 28.2° (Epoch: 28 October)

Event Time Altitude Azimuth Distance (km) Brightness Sun altitude
Rises 14:06:50 0° 251° (WSW) 3,656 8.5 54.8°
Reaches altitude 10° 14:11:31 10° 221° (SW) 2,775 8.0 53.6°
Maximum altitude 14:13:57 12° 199° (SSW) 2,664 7.7 53.0°
Drops below altitude 10° 14:16:27 10° 178° (S) 2,851 7.6 52.4°
Sets 14:21:28 0° 149° (SSE) 3,886 8.0 51.2°
